Regional Weather Roundup
Issued by NWS Wakefield, VA

Home | Current Version | Previous Version | Text Only | Print | Product List | Glossary Off
Versions: 1 2 3 4 5 6 7 8 9 10 11 12 13 14 15 16 17 18 19 20 21 22 23 24 25 26 27 28 29 30 31 32 33 34 35 36 37 38 39 40 41 42 43 44 45 46 47 48 49

000
ASUS41 KAKQ 202210
RWRAKQ

REGIONAL WEATHER ROUNDUP
NATIONAL WEATHER SERVICE WAKEFIELD VA
500 PM EST THU NOV 20 2014

Note: "fair" indicates few or no clouds below 12,000 feet with no
significant weather and/or obstructions to visibility. * = Denotes
station may not report precipitation (e.g., rain,snow,etc.),
thunder or fog.

VAZ042-051-052>054-056-202300-
NORTHERN VIRGINIA

CITY           SKY/WX    TMP DP  RH WIND       PRES   REMARKS
WASH NATIONAL  PTCLDY    54  22  28 W7        29.92R
DULLES         PTCLDY    45  18  34 NW13      29.94R
FORT BELVOIR   CLEAR     52  17  25 W8        29.92R
QUANTICO       CLEAR     53  18  25 W9        29.94R
FREDERICKSBRG* CLEAR     53  20  27 W8        29.93R
STAFFORD*      CLEAR     51  14  23 CALM      29.97R
WARRENTON      CLEAR     50  24  36 SW5       29.92R
CULPEPER*      CLEAR     52  12  20 W7        29.93R
MANASSAS*      CLEAR     52  18  25 W5        29.92R
LEESBURG*      CLEAR     45  21  39 NW15G22   29.95R
WINCHESTER     CLEAR     45   1  16 NW16G22   29.94R
FRONT ROYAL*   CLEAR     45  12  26 W10       29.93R
LURAY*         CLEAR     46  14  27 W8        29.94R
$$

VAZ048-049-060>072-079>083-202300-
CENTRAL AND SOUTH CENTRAL VIRGINIA

CITY           SKY/WX    TMP DP  RH WIND       PRES   REMARKS
RICHMOND       CLEAR     54  23  30 SW13      29.96R
CHESTERFIELD*  CLEAR     52  21  30 SW8       29.97R
PETERSBURG*    CLEAR     52  23  32 SW9       29.98R
HANOVER        CLEAR     52  25  35 SW9       29.96R
TAPPAHANNOCK*  CLEAR     52  19  26 SW6       29.95R
QUINTON*       FAIR      53  25  34 W6G17     29.95S
CHARLOTTSVILLE CLEAR     50  14  23 VRB6      29.94R
GORDONSVILLE*  CLEAR     49  18  28 SW3       29.94R
ORANGE*        CLEAR     50  19  29 SW8       29.95R
LOUISA*        CLEAR     52  19  28 SW6       29.93R
BUMPASS*       FAIR      51  19  28 W6        29.94R
FARMVILLE*     CLEAR     54  18  25 SW6       29.96R
CREWE*         CLEAR     52  23  31 W5        29.97R
FORT PICKETT*  CLEAR     50  25  37 SW7       29.98R
LUNENBURG*     CLEAR    N/A N/A N/A CALM      29.98R
CHASE CITY*    FAIR      53  31  42 CALM      29.99R
CLARKSVILLE*   FAIR      52  28  40 SW7       29.99S
SOUTH HILL*    CLEAR     52  26  36 SW6       30.05R
LAWRENCEVILLE* CLEAR     52  27  37 W7        29.98S
$$

VAZ088>098-202300-
SOUTHEAST VIRGINIA

CITY           SKY/WX    TMP DP  RH WIND       PRES   REMARKS
NORFOLK        CLEAR     54  24  31 SW10      29.98R
VIRGINIA BEACH CLEAR     54  26  34 SW13      29.98R
NORFOLK NAVAL  CLEAR     55  27  34 SW7       30.00R
WEST POINT*    CLEAR     53  23  30 SW7       29.97R
SALUDA*        FAIR      52  25  34 W5        29.95R
NEWPORT NEWS   CLEAR     56  27  32 SW13      29.98R
LANGLEY AFB    CLEAR     53  29  40 SW9       29.98R
FORT EUSTIS    CLEAR     53  31  41 SW9       29.96R
WILLIAMSBURG*  CLEAR     55  30  38 W9        29.98R
HR EXEC AP*    CLEAR     52  27  37 SW8       30.01R
FRANKLIN*      CLEAR     52  27  37 SW6       30.00R
WAKEFIELD      CLEAR     53  26  35 SW7       29.99R
$$

VAZ020-022-025-037-045-202300-
WEST CENTRAL AND SOUTHWEST VIRGINIA

CITY           SKY/WX    TMP DP  RH WIND       PRES   REMARKS
STAUNTON*      CLEAR     45  10  24 W8        29.96R
WAYNESBORO*    CLEAR     44  13  29 W6        29.94R
HOT SPRINGS VA CLEAR     32  10  40 W16G23    29.89R WCI  21
LYNCHBURG      CLEAR     48  20  32 SW7G18    29.99R
DANVILLE       CLEAR     54  23  30 W10       30.02R
SOUTH BOSTON*  CLEAR     53  23  31 W6        30.00R
MARTINSVILLE   CLEAR     50  20  30 W6        30.05R
ROANOKE        CLEAR     48  17  29 W8        30.00R
BLACKSBURG     CLEAR     43  25  49 W10       30.01R
DUBLIN*        CLEAR     43  22  43 W12       30.02R
MARION*        CLEAR     42  19  39 W22G30    30.03R
HILLSVILLE*    CLEAR     40  20  43 W10G17    30.02R
RICHLANDS*     CLEAR     43  19  39 W13G18    30.03S
WISE*          CLEAR     39  14  35 SW10      30.07R
ABINGDON*      CLEAR     45  20  37 W8        30.07R
$$

MDZ021>025-VAZ099-100-202300-
SOUTHERN MARYLAND AND THE DELMARVA PENINSULA

CITY           SKY/WX    TMP DP  RH WIND       PRES   REMARKS
PATUXENT RIVER PTCLDY    49  23  36 SW6       29.92R
BAY BRIDGE APT   N/A     48  28  46 SW5       29.91R
LEONARDTOWN    CLEAR     50  27  40 SW6       29.94R
DOVER          CLEAR     46  25  44 SW6       29.89R
GEORGETOWN     CLEAR     50  24  36 SW6       29.93R
EASTON         CLEAR     48  28  46 SW6       29.95R
CAMBRIDGE      CLEAR     52  28  40 CALM      29.92R
SALISBURY      CLEAR     48  26  42 SW5       29.93R
OCEAN CITY     CLEAR     47  25  42 SW6       29.94R
WALLOPS ISLAND CLEAR     47  27  45 SW7       29.95R
ACCOMACK*      CLEAR     50  28  43 SW9       29.95R
$$

NCZ012>017-030>032-202300-
NORTH CENTRAL AND EASTERN NORTH CAROLINA

CITY           SKY/WX    TMP DP  RH WIND       PRES   REMARKS
ROANOKE RAPIDS CLEAR     52  30  43 SW6       30.01R
RALEIGH        PTCLDY    54  26  34 W7        30.03R
ELIZABETH CITY CLEAR     54  28  36 SW10      30.02R
AHOSKIE*       CLEAR     49  29  46 CALM      30.02R
EDENTON*       CLEAR     55  31  40 W7        30.02R
CURRITUCK*     CLEAR     54  24  31 SW8       30.00R
KILL DEVIL HLS CLEAR     51  33  51 SW8       30.01R
MANTEO         CLEAR     51  36  56 SW8       30.03R
CAPE HATTERAS  CLEAR     53  35  50 W13G21    30.06R
TARBORO*       CLEAR     55  28  34 SW6       30.03R
GOLDSBORO      CLEAR     53  30  41 W10       30.03R
WASHINGTON     CLEAR     54  28  36 W7        30.04R
GREENVILLE     CLEAR     54  28  37 W7        30.06R
NEW BERN       CLEAR     57  29  34 SW5       30.06R
WILMINGTON     CLEAR     55  38  52 SW9       30.09R
$$

VAZ048-202300-
ELSEWHERE

CITY           SKY/WX    TMP DP  RH WIND       PRES   REMARKS
HARRISBURG PA  CLEAR     37  14  38 NW18G29   29.95R
BALTIMORE      PTCLDY    46  22  38 NW7       29.92R
ANNAPOLIS      PTCLDY    50  23  34 CALM      29.91R
ANDREWS AFB    CLEAR     49  23  36 SW5       29.91R
PHILADELPHIA   PTCLDY    46  23  40 W8        29.91R
WILDWOOD NJ*   PTCLDY    46  27  46 W8        29.89R
HENDERSON NC   CLEAR     53  22  29 W6        30.01R
GREENSBORO     PTCLDY    51  27  39 SW8       30.02R
ROCKY MOUNT    CLEAR     53  28  38 SW7       30.03R
$$

VAZ100-202300-
MARINE

STATION/POSITION TIME  TEMP    WIND        PRES    WAVE   SWELL
                       AIR SEA DIR/SP/G            HT/PER HT/PER
                 (UTC) (F)     (DEG/KT/KT) (MB)    (FT/S) (FT/S)
CAPE MAY NJ      2200   48 47  250/ 12/ 13 1012.3R
LEWES DE         2200   51 48  250/  8/ 12 1012.8R
15NM E FENWICK I 2200   52 54              1013.1R   5/ 6
OCEAN-CITY-INLET 2200   50 47  260/  8/ 10 1013.0S
WACHAPREAGUE VA  2200   52 44  250/  5/  8 1014.0R
THOMAS POINT MD  2200   51 50  230/  5/  5 1014.1R
GOOSES REEF MD   2200   52     250/ 12/ 17 1013.3R
COVE POINT MD    2200   52     270/ 11/ 13 1012.8S
SOLOMONS ISLAND  2200      49                N/A
BISHOPS HEAD MD  2200   48 41  250/  9/ 12 1012.8S
PINEY POINT MD   2200          260/  7/ 11   N/A
POTOMAC MD       2200   53     260/ 12/ 14 1012.8R
CAMBRIDGE MD     2200   51 44  240/  6/  7 1012.8S
LEWISETTA VA     2200   53 46  240/  9/ 11 1013.2S
RAPPAHANNOCK LGT 2200          230/ 12/ 13 1014.6R
STINGRAY PT      2200   54     260/ 12/ 16 1014.5R
YORK RVR RNG VA  2200   54     260/ 14/ 17 1013.9S
YORKTOWN VA      2200   55 51  240/ 11/ 14 1014.1S
JAMESTOWN VA     2200   54     280/  8/ 10   N/A
DOMINION TERM VA 2200   54     250/ 13/ 15 1014.8R
KIPTOPEKE VA     2200      52  250/  9/ 12   N/A
CHES BAY BRIDGE  2200   55 52  220/ 16/ 21 1014.3R
CAPE HENRY VA    2200   54     230/  8/ 16 1013.8R
CHESAPEAKE LGHT  2100   55     250/ 21/ 23 1014.8R
WILLOUBY STN VA  2200   54     240/ 15/ 17 1013.2R
S CRANEY ISL VA  2200          230/  9/ 12 1015.1R
CAPE HENRY BUOY  2200      55                N/A     4/ 4
1ST LANDING BUOY 2200   55     250/ 16/ 17 1014.6R
CAPE CHARLES BUO 2200      53                N/A     3/ 4
64NM E OF VA BCH 2200   56 61  240/ 21/ 23 1014.7F   4/ 5
DUCK PIER NC     2200   52 55  230/  9/ 12 1015.2R
44100 DUCK FRF   2200      58                N/A     3/ 4
44056 DUCK FRF   2200      57                N/A     2/ 3
OREGON INLET NC  2200   51 46  210/ 16/ 19 1016.7R
HATTERAS NC      2200   54 51  240/ 10/ 16 1018.0R
DIAMOND SHLS NC  2200   60     240/ 21/ 27 1017.6R   6/ 6
CAPE LOOKOUT NC  2100   57     230/  9/ 12 1018.1S



USA.gov is the U.S. government's official web portal to all federal, state and local government web resources and services.